Regional Weather Roundup
Issued by NWS

Home | Current Version | Previous Version | Graphics & Text | Print | Product List | Glossary On
Versions: 1 2 3 4 5 6 7 8 9 10 11 12 13 14 15 16 17 18 19 20 21 22 23 24 25 26 27 28 29 30 31 32 33 34 35 36 37 38 39 40 41 42 43 44 45 46 47 48 49 50
000
ASUS43 KLMK 010902
RWRKY
KENTUCKY REGIONAL WEATHER ROUNDUP
NATIONAL WEATHER SERVICE LOUISVILLE KY
400 AM EST SUN MAR 01 2015

NOTE "FAIR" INDICATES FEW OR NO CLOUDS BELOW 12,000 FEET
WITH NO SIGNIFICANT WEATHER AND/OR OBSTRUCTIONS TO VISIBILITY.

KYZ001>023-026-027-061>063-070>075-011000-
WESTERN AND SOUTH CENTRAL KENTUCKY

CITY           SKY/WX    TMP DP  RH WIND       PRES   REMARKS
PADUCAH        CLOUDY    33  23  66 E6        30.35F WCI  28
HENDERSON      CLOUDY    32  21  64 NE7       30.39F WCI  26
OWENSBORO      MIX PCPN  33  22  64 NE6       30.39F WCI  27
HOPKINSVILLE   CLOUDY    35  26  69 N2        30.37S
BOWLING GREEN  CLOUDY    36  25  64 CALM      30.38S
GLASGOW        NOT AVBL
$$

KYZ024-025-028>034-038-045-046-053-011000-
NORTH CENTRAL KENTUCKY

CITY           SKY/WX    TMP DP  RH WIND       PRES   REMARKS
LOUISVILLE/SDF CLOUDY    31  25  78 N5        30.40F WCI  26
LOUISVILLE/LOU CLOUDY    31  25  78 NW5       30.42R WCI  26
FORT KNOX      CLOUDY    31  23  74 NE3       30.36F
$$

KYZ035>037-039>044-047>052-055>060-089>105-011000-
NORTHEAST KENTUCKY

CITY           SKY/WX    TMP DP  RH WIND       PRES   REMARKS
LEXINGTON      CLOUDY    33  21  61 E6        30.37F WCI  28
COVINGTON      LGT SNOW  26  23  88 SE7       30.38F FOG     WCI  18
FRANKFORT        N/A     31  23  72 E6        30.37F WCI  25
$$

KYZ054-064>069-076>088-106>120-011000-
SOUTHEAST KENTUCKY

CITY           SKY/WX    TMP DP  RH WIND       PRES   REMARKS
JACKSON        CLOUDY    36  17  46 E3        30.39F
LONDON         CLOUDY    36  26  67 CALM      30.39S
SOMERSET       NOT AVBL
MIDDLESBORO    CLOUDY    35  31  85 CALM      30.41F
MONTICELLO     CLOUDY    39  32  76 CALM      30.40F
$$




USA.gov is the U.S. government's official web portal to all federal, state and local government web resources and services.